,,,PA_Meas_PMT16A,,PR_Meas_QMR101_102,,RH_Meas_QMH101,,SR_Meas_QMS101,,TA_Meas_QMH101,,GenWind,,GenWind,
date,time,status,PA,status,PR,status,RH,status,SR,status,TA,status,DirAvg,status,SpdAvg,
2010-02-14, 00:00:04,VALID,1002.13,VALID,0,VALID,93.6078,VALID,0.112286,VALID,21.4385,VALID,40,VALID,0,
2010-02-14, 00:01:04,VALID,1002.13,VALID,0,VALID,93.6917,VALID,0,VALID,21.4775,VALID,57,VALID,0.928125,
2010-02-14, 00:02:04,VALID,1002.14,VALID,0,VALID,93.6612,VALID,0,VALID,21.4775,VALID,57,VALID,0.549609,
2010-02-14, 00:03:04,VALID,1002.16,VALID,0,VALID,93.6765,VALID,0,VALID,21.5165,VALID,57,VALID,0.5375,
2010-02-14, 00:04:04,VALID,1002.12,VALID,0,VALID,93.7223,VALID,0,VALID,21.5555,VALID,57,VALID,0.658594,
2010-02-14, 00:05:04,VALID,1002.12,VALID,0,VALID,93.707,VALID,0,VALID,21.5538,VALID,57,VALID,0.521094,
2010-02-14, 00:06:04,VALID,1002.13,VALID,0,VALID,93.7223,VALID,0,VALID,21.5928,VALID,57,VALID,0.420703,
2010-02-14, 00:07:04,VALID,1002.1,VALID,0,VALID,93.7451,VALID,0,VALID,21.6335,VALID,59,VALID,0.639453,
2010-02-14, 00:08:04,VALID,1002.11,VALID,0,VALID,93.7528,VALID,0,VALID,21.6725,VALID,71,VALID,0.732031,
2010-02-14, 00:09:04,VALID,1002.08,VALID,0,VALID,93.7146,VALID,0,VALID,21.692,VALID,71,VALID,0.432031,
2010-02-14, 00:10:04,VALID,1002.07,VALID,0,VALID,93.7223,VALID,0,VALID,21.6708,VALID,71,VALID,0.326562,
2010-02-14, 00:11:04,VALID,1002.11,VALID,0,VALID,93.7146,VALID,0,VALID,21.731,VALID,63,VALID,0.692187,
2010-02-14, 00:12:04,VALID,1002.07,VALID,0,VALID,93.6994,VALID,0,VALID,21.7098,VALID,59,VALID,0.548828,
2010-02-14, 00:13:04,VALID,1002.09,VALID,0,VALID,93.6841,VALID,0.112286,VALID,21.731,VALID,59,VALID,0.355078,
2010-02-14, 00:14:04,VALID,1002.07,VALID,0,VALID,93.6917,VALID,0,VALID,21.7505,VALID,60,VALID,0.286328,
2010-02-14, 00:15:04,VALID,1002.07,VALID,0,VALID,93.6841,VALID,0,VALID,21.7505,VALID,60,VALID,0.295703,
2010-02-14, 00:16:04,VALID,1002.06,VALID,0,VALID,93.6383,VALID,0,VALID,21.77,VALID,59,VALID,0.0582031,
2010-02-14, 00:17:04,VALID,1002.01,VALID,0,VALID,93.646,VALID,0,VALID,21.7505,VALID,60,VALID,0,
2010-02-14, 00:18:04,VALID,1002,VALID,0,VALID,93.6383,VALID,0,VALID,21.77,VALID,59,VALID,0,
2010-02-14, 00:19:04,VALID,1001.99,VALID,0,VALID,93.6383,VALID,0,VALID,21.77,VALID,58,VALID,0,
2010-02-14, 00:20:04,VALID,1001.97,VALID,0,VALID,93.6307,VALID,0,VALID,21.77,VALID,2,VALID,0,
2010-02-14, 00:21:04,VALID,1001.94,VALID,0,VALID,93.6231,VALID,0,VALID,21.77,VALID,2,VALID,0,
2010-02-14, 00:22:04,VALID,1001.94,VALID,0,VALID,93.6231,VALID,0,VALID,21.8106,VALID,2,VALID,0,
2010-02-14, 00:23:04,VALID,1001.89,VALID,0,VALID,93.6231,VALID,0,VALID,21.7683,VALID,2,VALID,0,
2010-02-14, 00:24:04,VALID,1001.88,VALID,0,VALID,93.5926,VALID,0,VALID,21.7895,VALID,2,VALID,0,
2010-02-14, 00:25:04,VALID,1001.86,VALID,0,VALID,93.6154,VALID,0,VALID,21.7505,VALID,2,VALID,0,
2010-02-14, 00:26:04,VALID,1001.87,VALID,0,VALID,93.5849,VALID,0,VALID,21.77,VALID,2,VALID,0,
2010-02-14, 00:27:04,VALID,1001.85,VALID,0,VALID,93.5697,VALID,0,VALID,21.7505,VALID,2,VALID,0,
2010-02-14, 00:28:04,VALID,1001.83,VALID,0,VALID,93.5773,VALID,0.112286,VALID,21.7293,VALID,2,VALID,0,
2010-02-14, 00:29:04,VALID,1001.77,VALID,0,VALID,93.5697,VALID,0,VALID,21.7505,VALID,2,VALID,0,
2010-02-14, 00:30:04,VALID,1001.79,VALID,0,VALID,93.5697,VALID,0,VALID,21.731,VALID,2,VALID,0,
2010-02-14, 00:31:04,VALID,1001.79,VALID,0,VALID,93.5773,VALID,0,VALID,21.7521,VALID,2,VALID,0,
2010-02-14, 00:32:04,VALID,1001.79,VALID,0,VALID,93.5697,VALID,0,VALID,21.731,VALID,2,VALID,0,
2010-02-14, 00:33:04,VALID,1001.76,VALID,0,VALID,93.5697,VALID,0,VALID,21.731,VALID,2,VALID,0,
2010-02-14, 00:34:04,VALID,1001.78,VALID,0,VALID,93.5391,VALID,0,VALID,21.7131,VALID,2,VALID,0,
2010-02-14, 00:35:04,VALID,1001.74,VALID,0,VALID,93.5468,VALID,0,VALID,21.692,VALID,2,VALID,0,
2010-02-14, 00:36:04,VALID,1001.73,VALID,0,VALID,93.5468,VALID,0,VALID,21.6936,VALID,15,VALID,0.583594,
2010-02-14, 00:37:04,VALID,1001.72,VALID,0,VALID,93.5391,VALID,0,VALID,21.6936,VALID,21,VALID,0.620313,
2010-02-14, 00:38:04,VALID,1001.71,VALID,0,VALID,93.4934,VALID,0,VALID,21.6546,VALID,30,VALID,0.442969,
2010-02-14, 00:39:04,VALID,1001.71,VALID,0,VALID,93.4781,VALID,0,VALID,21.6351,VALID,30,VALID,0,
2010-02-14, 00:40:04,VALID,1001.67,VALID,0,VALID,93.4934,VALID,0,VALID,21.6156,VALID,30,VALID,0,
2010-02-14, 00:41:04,VALID,1001.65,VALID,0,VALID,93.501,VALID,0,VALID,21.5961,VALID,30,VALID,0,
2010-02-14, 00:42:04,VALID,1001.66,VALID,0,VALID,93.5086,VALID,0,VALID,21.5766,VALID,30,VALID,0,
2010-02-14, 00:43:04,VALID,1001.63,VALID,0,VALID,93.5163,VALID,0,VALID,21.5571,VALID,30,VALID,0,
2010-02-14, 00:44:04,VALID,1001.63,VALID,0,VALID,93.5239,VALID,0,VALID,21.5555,VALID,30,VALID,0,
2010-02-14, 00:45:04,VALID,1001.58,VALID,0,VALID,93.562,VALID,0,VALID,21.5555,VALID,30,VALID,0,
2010-02-14, 00:46:04,VALID,1001.57,VALID,0,VALID,93.5697,VALID,0,VALID,21.5555,VALID,30,VALID,0,
2010-02-14, 00:47:04,VALID,1001.57,VALID,0,VALID,93.5926,VALID,0,VALID,21.5555,VALID,30,VALID,0,
2010-02-14, 00:48:04,VALID,1001.55,VALID,0,VALID,93.5926,VALID,0,VALID,21.5555,VALID,30,VALID,0,
2010-02-14, 00:49:04,VALID,1001.57,VALID,0,VALID,93.5697,VALID,0,VALID,21.5555,VALID,30,VALID,0,
2010-02-14, 00:50:04,VALID,1001.55,VALID,0,VALID,93.5697,VALID,0,VALID,21.536,VALID,30,VALID,0.694922,
2010-02-14, 00:51:04,VALID,1001.55,VALID,0,VALID,93.5849,VALID,0,VALID,21.5165,VALID,30,VALID,0.304297,
2010-02-14, 00:52:04,VALID,1001.55,VALID,0,VALID,93.562,VALID,0.112286,VALID,21.497,VALID,30,VALID,0,
2010-02-14, 00:53:04,VALID,1001.54,VALID,0,VALID,93.5544,VALID,0,VALID,21.4775,VALID,30,VALID,0,
2010-02-14, 00:54:04,VALID,1001.54,VALID,0,VALID,93.5849,VALID,0,VALID,21.458,VALID,30,VALID,0,
2010-02-14, 00:55:04,VALID,1001.56,VALID,0,VALID,93.562,VALID,0,VALID,21.4563,VALID,30,VALID,0.760547,
2010-02-14, 00:56:04,VALID,1001.57,VALID,0,VALID,93.6231,VALID,0,VALID,21.458,VALID,30,VALID,0.65,
2010-02-14, 00:57:04,VALID,1001.57,VALID,0,VALID,93.6688,VALID,0,VALID,21.4775,VALID,30,VALID,0.514063,
2010-02-14, 00:58:04,VALID,1001.53,VALID,0,VALID,93.707,VALID,0,VALID,21.4775,VALID,30,VALID,0.276172,
2010-02-14, 00:59:04,VALID,1001.54,VALID,0,VALID,93.6612,VALID,0.112286,VALID,21.4775,VALID,30,VALID,0,
2010-02-14, 01:00:04,VALID,1001.53,VALID,0,VALID,93.6841,VALID,0,VALID,21.497,VALID,30,VALID,0,
2010-02-14, 01:01:04,VALID,1001.5,VALID,0,VALID,93.6994,VALID,0,VALID,21.497,VALID,30,VALID,0,
2010-02-14, 01:02:04,VALID,1001.48,VALID,0,VALID,93.7146,VALID,0,VALID,21.4758,VALID,30,VALID,0.003125,
2010-02-14, 01:03:04,VALID,1001.48,VALID,0,VALID,93.7909,VALID,0,VALID,21.536,VALID,88,VALID,0.618359,
2010-02-14, 01:04:04,VALID,1001.46,VALID,0,VALID,93.7909,VALID,0.112286,VALID,21.575,VALID,88,VALID,0.681641,
2010-02-14, 01:05:04,VALID,1001.48,VALID,0,VALID,93.8062,VALID,0,VALID,21.5945,VALID,87,VALID,0.762109,
2010-02-14, 01:06:04,VALID,1001.43,VALID,0,VALID,93.768,VALID,0,VALID,21.614,VALID,95,VALID,0.836719,
2010-02-14, 01:07:04,VALID,1001.45,VALID,0,VALID,93.8138,VALID,0.112286,VALID,21.6123,VALID,111,VALID,1.04102,
2010-02-14, 01:08:04,VALID,1001.43,VALID,0,VALID,93.8138,VALID,0,VALID,21.6513,VALID,114,VALID,0.671875,
2010-02-14, 01:09:04,VALID,1001.42,VALID,0,VALID,93.7985,VALID,0,VALID,21.6725,VALID,114,VALID,0.0234375,
2010-02-14, 01:10:04,VALID,1001.44,VALID,0,VALID,93.7375,VALID,0.112286,VALID,21.6335,VALID,114,VALID,0,
2010-02-14, 01:11:04,VALID,1001.39,VALID,0,VALID,93.7146,VALID,0,VALID,21.614,VALID,114,VALID,0,
2010-02-14, 01:12:04,VALID,1001.37,VALID,0,VALID,93.7375,VALID,0.112286,VALID,21.614,VALID,114,VALID,0,
2010-02-14, 01:13:04,VALID,1001.33,VALID,0,VALID,93.7375,VALID,0,VALID,21.614,VALID,114,VALID,0,
2010-02-14, 01:14:04,VALID,1001.3,VALID,0,VALID,93.7223,VALID,0,VALID,21.6123,VALID,114,VALID,0,
2010-02-14, 01:15:04,VALID,1001.3,VALID,0,VALID,93.7451,VALID,0,VALID,21.6335,VALID,114,VALID,0,
2010-02-14, 01:16:04,VALID,1001.27,VALID,0,VALID,93.768,VALID,0,VALID,21.653,VALID,68,VALID,0,
2010-02-14, 01:17:04,VALID,1001.26,VALID,0,VALID,93.7604,VALID,0,VALID,21.653,VALID,68,VALID,0,
2010-02-14, 01:18:04,VALID,1001.28,VALID,0,VALID,93.7528,VALID,0.112286,VALID,21.6335,VALID,68,VALID,0.24375,
2010-02-14, 01:19:04,VALID,1001.25,VALID,0,VALID,93.8062,VALID,0,VALID,21.6318,VALID,55,VALID,0.624609,
2010-02-14, 01:20:04,VALID,1001.22,VALID,0,VALID,93.8138,VALID,0.112286,VALID,21.6725,VALID,55,VALID,0.266016,
2010-02-14, 01:21:04,VALID,1001.22,VALID,0,VALID,93.7757,VALID,0,VALID,21.6725,VALID,55,VALID,0.208594,
2010-02-14, 01:22:04,VALID,1001.25,VALID,0,VALID,93.768,VALID,0.112286,VALID,21.6725,VALID,55,VALID,0.253516,
2010-02-14, 01:23:04,VALID,1001.23,VALID,0,VALID,93.7833,VALID,0.112286,VALID,21.6513,VALID,55,VALID,0.034375,
2010-02-14, 01:24:04,VALID,1001.23,VALID,0,VALID,93.7757,VALID,0,VALID,21.6725,VALID,55,VALID,0,
2010-02-14, 01:25:04,VALID,1001.24,VALID,0,VALID,93.7604,VALID,0.112286,VALID,21.692,VALID,55,VALID,0,
2010-02-14, 01:26:04,VALID,1001.27,VALID,0,VALID,93.7375,VALID,0.112286,VALID,21.6513,VALID,55,VALID,0,
2010-02-14, 01:27:04,VALID,1001.26,VALID,0,VALID,93.7375,VALID,0.112286,VALID,21.6318,VALID,55,VALID,0,
2010-02-14, 01:28:04,VALID,1001.28,VALID,0,VALID,93.7451,VALID,0,VALID,21.653,VALID,55,VALID,0,
2010-02-14, 01:29:04,VALID,1001.26,VALID,0,VALID,93.7604,VALID,0,VALID,21.6513,VALID,55,VALID,0,
2010-02-14, 01:30:04,VALID,1001.28,VALID,0,VALID,93.7375,VALID,0,VALID,21.653,VALID,55,VALID,0,
2010-02-14, 01:31:04,VALID,1001.29,VALID,0,VALID,93.7451,VALID,0.112286,VALID,21.653,VALID,55,VALID,0,
2010-02-14, 01:32:04,VALID,1001.27,VALID,0,VALID,93.7528,VALID,0,VALID,21.653,VALID,55,VALID,0,
2010-02-14, 01:33:04,VALID,1001.31,VALID,0,VALID,93.8062,VALID,0,VALID,21.6513,VALID,63,VALID,0.494922,
2010-02-14, 01:34:04,VALID,1001.28,VALID,0,VALID,93.7833,VALID,0,VALID,21.692,VALID,63,VALID,0.214062,
2010-02-14, 01:35:04,VALID,1001.29,VALID,0,VALID,93.7757,VALID,0,VALID,21.6725,VALID,63,VALID,0,
2010-02-14, 01:36:04,VALID,1001.28,VALID,0,VALID,93.7604,VALID,0,VALID,21.653,VALID,63,VALID,0,
2010-02-14, 01:37:04,VALID,1001.31,VALID,0,VALID,93.7451,VALID,0,VALID,21.653,VALID,63,VALID,0,
2010-02-14, 01:38:04,VALID,1001.31,VALID,0,VALID,93.7528,VALID,0,VALID,21.6725,VALID,63,VALID,0,
2010-02-14, 01:39:04,VALID,1001.31,VALID,0,VALID,93.7833,VALID,0,VALID,21.6725,VALID,63,VALID,0,
2010-02-14, 01:40:04,VALID,1001.31,VALID,0,VALID,93.768,VALID,0.112286,VALID,21.692,VALID,63,VALID,0,
2010-02-14, 01:41:04,VALID,1001.31,VALID,0,VALID,93.768,VALID,0,VALID,21.6708,VALID,63,VALID,0,
2010-02-14, 01:42:04,VALID,1001.29,VALID,0,VALID,93.7528,VALID,0,VALID,21.692,VALID,63,VALID,0,
2010-02-14, 01:43:04,VALID,1001.32,VALID,0,VALID,93.7451,VALID,0,VALID,21.692,VALID,63,VALID,0,
2010-02-14, 01:44:04,VALID,1001.29,VALID,0,VALID,93.7833,VALID,0,VALID,21.6936,VALID,63,VALID,0,
2010-02-14, 01:45:04,VALID,1001.26,VALID,0,VALID,93.768,VALID,0,VALID,21.7131,VALID,63,VALID,0,
2010-02-14, 01:46:04,VALID,1001.27,VALID,0,VALID,93.768,VALID,0,VALID,21.7131,VALID,63,VALID,0,
2010-02-14, 01:47:04,VALID,1001.26,VALID,0,VALID,93.7833,VALID,0,VALID,21.6725,VALID,63,VALID,0,
2010-02-14, 01:48:04,VALID,1001.24,VALID,0,VALID,93.7909,VALID,0,VALID,21.7131,VALID,63,VALID,0,
2010-02-14, 01:49:04,VALID,1001.28,VALID,0,VALID,93.7833,VALID,0,VALID,21.7115,VALID,63,VALID,0,
2010-02-14, 01:50:04,VALID,1001.25,VALID,0,VALID,93.7909,VALID,0,VALID,21.7115,VALID,63,VALID,0,
2010-02-14, 01:51:04,VALID,1001.22,VALID,0,VALID,93.7757,VALID,0,VALID,21.7326,VALID,63,VALID,0,
2010-02-14, 01:52:04,VALID,1001.2,VALID,0,VALID,93.7833,VALID,0,VALID,21.7521,VALID,63,VALID,0.251953,
2010-02-14, 01:53:04,VALID,1001.21,VALID,0,VALID,93.7985,VALID,0,VALID,21.7115,VALID,63,VALID,0,
2010-02-14, 01:54:04,VALID,1001.19,VALID,0,VALID,93.7833,VALID,0,VALID,21.7326,VALID,63,VALID,0,
2010-02-14, 01:55:04,VALID,1001.18,VALID,0,VALID,93.768,VALID,0,VALID,21.731,VALID,63,VALID,0,
2010-02-14, 01:56:04,VALID,1001.18,VALID,0,VALID,93.7451,VALID,0,VALID,21.692,VALID,21,VALID,0,
2010-02-14, 01:57:04,VALID,1001.16,VALID,0,VALID,93.7604,VALID,0,VALID,21.7131,VALID,16,VALID,0,
2010-02-14, 01:58:04,VALID,1001.11,VALID,0,VALID,93.7528,VALID,0,VALID,21.6725,VALID,16,VALID,0,
2010-02-14, 01:59:04,VALID,1001.11,VALID,0,VALID,93.7375,VALID,0,VALID,21.653,VALID,7,VALID,0.0464844,
2010-02-14, 02:00:04,VALID,1001.08,VALID,0,VALID,93.7451,VALID,0,VALID,21.6741,VALID,345,VALID,0.646875,
2010-02-14, 02:01:04,VALID,1001.01,VALID,0,VALID,93.7375,VALID,0,VALID,21.6741,VALID,324,VALID,0.0742188,
2010-02-14, 02:02:04,VALID,1001.04,VALID,0,VALID,93.7451,VALID,0,VALID,21.6351,VALID,298,VALID,0,
2010-02-14, 02:03:04,VALID,1001.03,VALID,0,VALID,93.7528,VALID,0,VALID,21.614,VALID,298,VALID,0,
2010-02-14, 02:04:04,VALID,1001.03,VALID,0,VALID,93.7528,VALID,0,VALID,21.6351,VALID,306,VALID,0,
2010-02-14, 02:05:04,VALID,1001.07,VALID,0,VALID,93.7604,VALID,0,VALID,21.6156,VALID,306,VALID,0,
2010-02-14, 02:06:04,VALID,1001.09,VALID,0,VALID,93.7223,VALID,0,VALID,21.5766,VALID,309,VALID,0,
2010-02-14, 02:07:04,VALID,1001.07,VALID,0,VALID,93.7146,VALID,0,VALID,21.5571,VALID,309,VALID,0,
2010-02-14, 02:08:04,VALID,1001.08,VALID,0,VALID,93.7223,VALID,0,VALID,21.5376,VALID,309,VALID,0,
2010-02-14, 02:09:04,VALID,1001.07,VALID,0,VALID,93.768,VALID,0,VALID,21.5571,VALID,309,VALID,0,
2010-02-14, 02:10:04,VALID,1001.1,VALID,0,VALID,93.7604,VALID,0,VALID,21.5376,VALID,309,VALID,0,
2010-02-14, 02:11:04,VALID,1001.11,VALID,0,VALID,93.7528,VALID,0,VALID,21.5376,VALID,308,VALID,0,
2010-02-14, 02:12:04,VALID,1001.12,VALID,0,VALID,93.7757,VALID,0,VALID,21.5376,VALID,308,VALID,0,
2010-02-14, 02:13:04,VALID,1001.13,VALID,0,VALID,93.7909,VALID,0,VALID,21.5376,VALID,308,VALID,0,
2010-02-14, 02:14:04,VALID,1001.15,VALID,0,VALID,93.7909,VALID,0,VALID,21.5165,VALID,308,VALID,0,
2010-02-14, 02:15:04,VALID,1001.14,VALID,0,VALID,93.8138,VALID,0,VALID,21.5148,VALID,308,VALID,0,
2010-02-14, 02:16:04,VALID,1001.15,VALID,0,VALID,93.8367,VALID,0,VALID,21.5733,VALID,231,VALID,0,
2010-02-14, 02:17:04,VALID,1001.11,VALID,0,VALID,93.8672,VALID,0,VALID,21.614,VALID,228,VALID,0,
2010-02-14, 02:18:04,VALID,1001.14,VALID,0,VALID,93.913,VALID,0,VALID,21.6335,VALID,228,VALID,0,
2010-02-14, 02:19:04,VALID,1001.11,VALID,0,VALID,93.913,VALID,0,VALID,21.6741,VALID,228,VALID,0,
2010-02-14, 02:20:04,VALID,1001.16,VALID,0,VALID,93.8977,VALID,0,VALID,21.6725,VALID,228,VALID,0,
2010-02-14, 02:21:04,VALID,1001.12,VALID,0,VALID,93.9283,VALID,0,VALID,21.692,VALID,228,VALID,0,
2010-02-14, 02:22:04,VALID,1001.13,VALID,0,VALID,93.913,VALID,0,VALID,21.7115,VALID,228,VALID,0,
2010-02-14, 02:23:04,VALID,1001.14,VALID,0,VALID,93.8825,VALID,0,VALID,21.692,VALID,228,VALID,0,
2010-02-14, 02:24:04,VALID,1001.12,VALID,0,VALID,93.8977,VALID,0,VALID,21.692,VALID,228,VALID,0,
2010-02-14, 02:25:04,VALID,1001.11,VALID,0,VALID,93.9054,VALID,0,VALID,21.7115,VALID,228,VALID,0,
2010-02-14, 02:26:04,VALID,1001.14,VALID,0,VALID,93.9283,VALID,0,VALID,21.7505,VALID,228,VALID,0,
2010-02-14, 02:27:04,VALID,1001.09,VALID,0,VALID,93.9359,VALID,0,VALID,21.77,VALID,176,VALID,0,
2010-02-14, 02:28:04,VALID,1001.12,VALID,0,VALID,93.913,VALID,0,VALID,21.7505,VALID,176,VALID,0,
2010-02-14, 02:29:04,VALID,1001.07,VALID,0,VALID,93.8748,VALID,0,VALID,21.731,VALID,176,VALID,0,
2010-02-14, 02:30:04,VALID,1001.1,VALID,0,VALID,93.8443,VALID,0,VALID,21.731,VALID,176,VALID,0,
2010-02-14, 02:31:04,VALID,1001.12,VALID,0,VALID,93.8596,VALID,0,VALID,21.7115,VALID,176,VALID,0,
2010-02-14, 02:32:04,VALID,1001.1,VALID,0,VALID,93.8825,VALID,0,VALID,21.731,VALID,176,VALID,0,
2010-02-14, 02:33:04,VALID,1001.13,VALID,0,VALID,93.8672,VALID,0,VALID,21.731,VALID,176,VALID,0,
2010-02-14, 02:34:04,VALID,1001.14,VALID,0,VALID,93.8672,VALID,0,VALID,21.731,VALID,176,VALID,0,
2010-02-14, 02:35:04,VALID,1001.12,VALID,0,VALID,93.9054,VALID,0,VALID,21.7505,VALID,176,VALID,0,
2010-02-14, 02:36:04,VALID,1001.11,VALID,0,VALID,93.8901,VALID,0,VALID,21.7505,VALID,176,VALID,0,
2010-02-14, 02:37:04,VALID,1001.1,VALID,0,VALID,93.8748,VALID,0,VALID,21.7505,VALID,176,VALID,0,
2010-02-14, 02:38:04,VALID,1001.09,VALID,0,VALID,93.8748,VALID,0,VALID,21.731,VALID,176,VALID,0,
2010-02-14, 02:39:04,VALID,1001.08,VALID,0,VALID,93.8443,VALID,0,VALID,21.7115,VALID,176,VALID,0,
2010-02-14, 02:40:04,VALID,1001.08,VALID,0,VALID,93.852,VALID,0,VALID,21.7115,VALID,243,VALID,0,
2010-02-14, 02:41:04,VALID,1001.07,VALID,0,VALID,93.8672,VALID,0,VALID,21.7115,VALID,243,VALID,0,
2010-02-14, 02:42:04,VALID,1001.04,VALID,0,VALID,93.8367,VALID,0,VALID,21.692,VALID,243,VALID,0,
2010-02-14, 02:43:04,VALID,1000.99,VALID,0,VALID,93.8443,VALID,0,VALID,21.6513,VALID,243,VALID,0,
2010-02-14, 02:44:04,VALID,1000.98,VALID,0,VALID,93.8367,VALID,0,VALID,21.6741,VALID,243,VALID,0,
2010-02-14, 02:45:04,VALID,1000.99,VALID,0,VALID,93.8291,VALID,0,VALID,21.6741,VALID,243,VALID,0,
2010-02-14, 02:46:04,VALID,1000.94,VALID,0,VALID,93.7909,VALID,0,VALID,21.6156,VALID,243,VALID,0,
2010-02-14, 02:47:04,VALID,1000.95,VALID,0,VALID,93.768,VALID,0,VALID,21.5555,VALID,243,VALID,0,
2010-02-14, 02:48:04,VALID,1000.9,VALID,0,VALID,93.7604,VALID,0,VALID,21.5571,VALID,243,VALID,0,
2010-02-14, 02:49:04,VALID,1000.93,VALID,0,VALID,93.7757,VALID,0,VALID,21.5181,VALID,243,VALID,0,
2010-02-14, 02:50:04,VALID,1000.95,VALID,0,VALID,93.768,VALID,0,VALID,21.4986,VALID,243,VALID,0,
2010-02-14, 02:51:04,VALID,1000.97,VALID,0,VALID,93.768,VALID,0,VALID,21.4775,VALID,243,VALID,0,
2010-02-14, 02:52:04,VALID,1000.93,VALID,0,VALID,93.7757,VALID,0,VALID,21.458,VALID,243,VALID,0,
2010-02-14, 02:53:04,VALID,1000.96,VALID,0,VALID,93.7528,VALID,0,VALID,21.4401,VALID,243,VALID,0,
2010-02-14, 02:54:04,VALID,1000.98,VALID,0,VALID,93.7375,VALID,0,VALID,21.4206,VALID,243,VALID,0,
2010-02-14, 02:55:04,VALID,1000.99,VALID,0,VALID,93.7604,VALID,0,VALID,21.4011,VALID,243,VALID,0,
2010-02-14, 02:56:04,VALID,1000.96,VALID,0,VALID,93.8825,VALID,0,VALID,21.4791,VALID,205,VALID,0.777344,
2010-02-14, 02:57:04,VALID,1000.93,VALID,0,VALID,93.974,VALID,0,VALID,21.6351,VALID,199,VALID,0.836328,
2010-02-14, 02:58:04,VALID,1000.93,VALID,0,VALID,94.0198,VALID,0,VALID,21.7521,VALID,199,VALID,0.522656,
2010-02-14, 02:59:04,VALID,1000.95,VALID,0,VALID,94.0427,VALID,0,VALID,21.8301,VALID,199,VALID,0.3375,
2010-02-14, 03:00:04,VALID,1000.96,VALID,0,VALID,94.0351,VALID,0,VALID,21.8675,VALID,199,VALID,0,
2010-02-14, 03:01:04,VALID,1000.99,VALID,0,VALID,93.9893,VALID,0,VALID,21.8887,VALID,199,VALID,0,
2010-02-14, 03:02:04,VALID,1001,VALID,0,VALID,93.9664,VALID,0,VALID,21.8675,VALID,199,VALID,0,
2010-02-14, 03:03:04,VALID,1001.01,VALID,0,VALID,93.913,VALID,0,VALID,21.8692,VALID,198,VALID,0,
2010-02-14, 03:04:04,VALID,1000.98,VALID,0,VALID,93.9054,VALID,0,VALID,21.8496,VALID,197,VALID,0,
2010-02-14, 03:05:04,VALID,1001,VALID,0,VALID,93.8596,VALID,0,VALID,21.8692,VALID,189,VALID,0,
2010-02-14, 03:06:04,VALID,1000.98,VALID,0,VALID,93.8367,VALID,0,VALID,21.8692,VALID,165,VALID,0,
2010-02-14, 03:07:04,VALID,1000.95,VALID,0,VALID,93.8291,VALID,0,VALID,21.9082,VALID,168,VALID,0,
2010-02-14, 03:08:04,VALID,1000.92,VALID,0,VALID,93.7985,VALID,0,VALID,21.9472,VALID,168,VALID,0,
2010-02-14, 03:09:04,VALID,1000.9,VALID,0,VALID,93.7451,VALID,0,VALID,22.0057,VALID,169,VALID,0,
2010-02-14, 03:10:04,VALID,1000.91,VALID,0,VALID,93.646,VALID,0,VALID,22.0057,VALID,169,VALID,0,
2010-02-14, 03:11:04,VALID,1000.89,VALID,0,VALID,93.3942,VALID,0,VALID,21.9667,VALID,169,VALID,0,
2010-02-14, 03:12:04,VALID,1000.93,VALID,0,VALID,93.0661,VALID,0,VALID,21.8301,VALID,66,VALID,0,
2010-02-14, 03:13:04,VALID,1000.91,VALID,0,VALID,92.9211,VALID,0,VALID,21.7131,VALID,66,VALID,0,
2010-02-14, 03:14:04,VALID,1000.88,VALID,0,VALID,93.0051,VALID,0,VALID,21.6741,VALID,142,VALID,0,
2010-02-14, 03:15:04,VALID,1000.85,VALID,0,VALID,93.089,VALID,0,VALID,21.6335,VALID,154,VALID,0,
2010-02-14, 03:16:04,VALID,1000.85,VALID,0,VALID,93.1577,VALID,0,VALID,21.6546,VALID,154,VALID,0,
2010-02-14, 03:17:04,VALID,1000.86,VALID,0,VALID,93.2111,VALID,0,VALID,21.6351,VALID,135,VALID,0,
2010-02-14, 03:18:04,VALID,1000.88,VALID,0,VALID,93.2416,VALID,0,VALID,21.6156,VALID,135,VALID,0,
2010-02-14, 03:19:04,VALID,1000.92,VALID,0,VALID,93.2874,VALID,0,VALID,21.6156,VALID,135,VALID,0,
2010-02-14, 03:20:04,VALID,1000.88,VALID,0,VALID,93.3789,VALID,0,VALID,21.6546,VALID,142,VALID,0,
2010-02-14, 03:21:04,VALID,1000.9,VALID,0,VALID,93.3713,VALID,0,VALID,21.6546,VALID,152,VALID,0,
2010-02-14, 03:22:04,VALID,1000.87,VALID,0,VALID,93.4247,VALID,0,VALID,21.6936,VALID,157,VALID,0,
2010-02-14, 03:23:04,VALID,1000.91,VALID,0,VALID,93.5086,VALID,0,VALID,21.7521,VALID,197,VALID,0,
2010-02-14, 03:24:04,VALID,1000.9,VALID,0,VALID,93.5239,VALID,0,VALID,21.7505,VALID,197,VALID,0,
2010-02-14, 03:25:04,VALID,1000.91,VALID,0,VALID,93.4781,VALID,0,VALID,21.7716,VALID,199,VALID,0,
2010-02-14, 03:26:04,VALID,1000.86,VALID,0,VALID,93.4857,VALID,0,VALID,21.7716,VALID,207,VALID,0,
2010-02-14, 03:27:04,VALID,1000.87,VALID,0,VALID,93.3789,VALID,0,VALID,21.7131,VALID,207,VALID,0,
2010-02-14, 03:28:04,VALID,1000.87,VALID,0,VALID,93.2416,VALID,0,VALID,21.6351,VALID,207,VALID,0,
2010-02-14, 03:29:04,VALID,1000.84,VALID,0,VALID,93.2187,VALID,0,VALID,21.575,VALID,207,VALID,0,
2010-02-14, 03:30:04,VALID,1000.86,VALID,0,VALID,93.2492,VALID,0,VALID,21.5555,VALID,207,VALID,0,
2010-02-14, 03:31:04,VALID,1000.84,VALID,0,VALID,93.3026,VALID,0,VALID,21.5343,VALID,207,VALID,0,
2010-02-14, 03:32:04,VALID,1000.86,VALID,0,VALID,93.356,VALID,0,VALID,21.5555,VALID,207,VALID,0,
2010-02-14, 03:33:04,VALID,1000.84,VALID,0,VALID,93.3713,VALID,0,VALID,21.5148,VALID,207,VALID,0,
2010-02-14, 03:34:04,VALID,1000.79,VALID,0,VALID,93.3789,VALID,0,VALID,21.5555,VALID,207,VALID,0,
2010-02-14, 03:35:04,VALID,1000.83,VALID,0,VALID,93.3484,VALID,0,VALID,21.5165,VALID,207,VALID,0,
2010-02-14, 03:36:04,VALID,1000.8,VALID,0,VALID,93.1958,VALID,0,VALID,21.4385,VALID,206,VALID,0,
2010-02-14, 03:37:04,VALID,1000.81,VALID,0,VALID,93.2187,VALID,0,VALID,21.3995,VALID,207,VALID,0,
2010-02-14, 03:38:04,VALID,1000.81,VALID,0,VALID,93.2797,VALID,0,VALID,21.38,VALID,207,VALID,0,
2010-02-14, 03:39:04,VALID,1000.82,VALID,0,VALID,93.2874,VALID,0,VALID,21.341,VALID,207,VALID,0,
2010-02-14, 03:40:04,VALID,1000.85,VALID,0,VALID,93.3408,VALID,0,VALID,21.3004,VALID,207,VALID,0,
2010-02-14, 03:41:04,VALID,1000.84,VALID,0,VALID,93.3713,VALID,0,VALID,21.2825,VALID,217,VALID,0,
2010-02-14, 03:42:04,VALID,1000.84,VALID,0,VALID,93.3713,VALID,0,VALID,21.263,VALID,319,VALID,0,
2010-02-14, 03:43:04,VALID,1000.81,VALID,0,VALID,93.4018,VALID,0,VALID,21.2435,VALID,319,VALID,0,
2010-02-14, 03:44:04,VALID,1000.83,VALID,0,VALID,93.4552,VALID,0,VALID,21.224,VALID,319,VALID,0,
2010-02-14, 03:45:04,VALID,1000.83,VALID,0,VALID,93.4247,VALID,0,VALID,21.2045,VALID,319,VALID,0,
2010-02-14, 03:46:04,VALID,1000.82,VALID,0,VALID,93.5544,VALID,0,VALID,21.224,VALID,319,VALID,0,
2010-02-14, 03:47:04,VALID,1000.81,VALID,0,VALID,93.5697,VALID,0,VALID,21.2045,VALID,319,VALID,0,
2010-02-14, 03:48:04,VALID,1000.84,VALID,0,VALID,93.5315,VALID,0,VALID,21.185,VALID,319,VALID,0,
2010-02-14, 03:49:04,VALID,1000.83,VALID,0,VALID,93.5086,VALID,0,VALID,21.146,VALID,319,VALID,0,
2010-02-14, 03:50:04,VALID,1000.85,VALID,0,VALID,93.501,VALID,0,VALID,21.107,VALID,319,VALID,0,
2010-02-14, 03:51:04,VALID,1000.86,VALID,0,VALID,93.5468,VALID,0,VALID,21.0875,VALID,319,VALID,0,
2010-02-14, 03:52:04,VALID,1000.86,VALID,0,VALID,93.5391,VALID,0,VALID,21.068,VALID,319,VALID,0,
2010-02-14, 03:53:04,VALID,1000.9,VALID,0,VALID,93.6078,VALID,0,VALID,21.0875,VALID,319,VALID,0,
2010-02-14, 03:54:04,VALID,1000.86,VALID,0,VALID,93.7985,VALID,0,VALID,21.1265,VALID,35,VALID,0,
2010-02-14, 03:55:04,VALID,1000.91,VALID,0,VALID,93.768,VALID,0,VALID,21.1655,VALID,55,VALID,0,
2010-02-14, 03:56:04,VALID,1000.89,VALID,0,VALID,93.7299,VALID,0,VALID,21.146,VALID,64,VALID,0.710938,
2010-02-14, 03:57:04,VALID,1000.86,VALID,0,VALID,93.768,VALID,0,VALID,21.146,VALID,64,VALID,0.355859,